Seattle, WA

3:58 PM PST on February 07, 2016 (GMT -0800)
Boeing Field-King County International

Weather History for KBFI - January, 2013

Change the Weather History Date:

Sunday, January 13, 2013

  Actual Average Record
Temperature  
Mean Temperature 30 °F -  
Max Temperature 37 °F 46 °F 56 °F (1986)
Min Temperature 24 °F 37 °F 11 °F (1950)
Degree Days  
Heating Degree Days 34    
Moisture  
Dew Point 22 °F    
Average Humidity 73    
Maximum Humidity 85    
Minimum Humidity 51    
Precipitation  
Precipitation 0.00 in - - ()
Sea Level Pressure  
Sea Level Pressure 30.47 in    
Wind  
Wind Speed 3 mph (SE)    
Max Wind Speed 6 mph    
Max Gust Speed -    
Visibility 10 miles    
Events      
Averages and records for this station are not official NWS values.
T = Trace of Precipitation, MM = Missing Value Source: NWS Daily Summary

Daily Weather History Graph

Daily Weather History Graph

Search for Another Location

Airport or City:

Trip Planner

Search our weather history database for the weather conditions in past years. The results will help you decide how hot, cold, wet, or windy it might be!

Date:

Astronomy

Jan. 13, 2013 Rise Set
Actual Time 7:53 AM PST 4:43 PM PST
Civil Twilight 7:18 AM PST 5:17 PM PST
Nautical Twilight 6:40 AM PST 5:56 PM PST
Astronomical Twilight 6:03 AM PST 6:33 PM PST
Moon 8:42 AM PST (1/13) 7:42 PM PST (1/13)
Length of Visible Light 9h 59m
Length of Day
8h 49m
Waxing Crescent, 6% of the Moon is Illuminated
Jan 13
Waxing Crescent
Jan 18
First Quarter
Jan 26
Full
Feb 3
Last Quarter
Feb 9
New

Hourly Weather History & Observations

Time (PST) Temp. Windchill Dew Point Humidity Pressure Visibility Wind Dir Wind Speed Gust Speed Precip Events Conditions
12:53 AM 25.0 °F 19.3 °F 21.0 °F 85% 30.46 in 10.0 mi SE 4.6 mph - N/A   Clear
1:53 AM 27.0 °F 20.5 °F 21.9 °F 81% 30.45 in 10.0 mi SE 5.8 mph - N/A   Overcast
2:53 AM 26.1 °F 20.5 °F 21.9 °F 84% 30.46 in 10.0 mi SE 4.6 mph - N/A   Mostly Cloudy
3:53 AM 28.0 °F 22.8 °F 21.9 °F 78% 30.45 in 10.0 mi ESE 4.6 mph - N/A   Overcast
4:53 AM 27.0 °F - 21.9 °F 81% 30.45 in 9.0 mi Calm Calm - N/A   Partly Cloudy
5:53 AM 25.0 °F - 21.0 °F 85% 30.46 in 9.0 mi Calm Calm - N/A   Clear
6:53 AM 24.8 °F 19.1 °F 19.4 °F 80% 30.47 in 8.0 mi SE 4.6 mph - N/A   Scattered Clouds
7:53 AM 24.1 °F - 19.0 °F 81% 30.49 in 7.0 mi Calm Calm - N/A   Scattered Clouds
8:53 AM 26.1 °F 21.9 °F 21.9 °F 84% 30.49 in 10.0 mi SE 3.5 mph - N/A   Scattered Clouds
9:53 AM 28.0 °F - 21.9 °F 78% 30.49 in 10.0 mi Calm Calm - N/A   Clear
10:53 AM 30.9 °F 27.5 °F 21.9 °F 69% 30.50 in 10.0 mi SE 3.5 mph - N/A   Scattered Clouds
11:53 AM 34.0 °F - 24.1 °F 67% 30.47 in 10.0 mi Calm Calm - N/A   Scattered Clouds
12:53 PM 36.0 °F - 25.0 °F 64% 30.46 in 10.0 mi Calm Calm - N/A   Mostly Cloudy
1:53 PM 37.9 °F - 24.1 °F 57% 30.46 in 10.0 mi Calm Calm - N/A   Overcast
2:53 PM 37.9 °F - 21.0 °F 51% 30.46 in 10.0 mi Calm Calm - N/A   Mostly Cloudy
3:53 PM 37.0 °F - 21.0 °F 52% 30.46 in 10.0 mi Calm Calm - N/A   Scattered Clouds
4:53 PM 36.0 °F - 23.0 °F 59% 30.47 in 10.0 mi Calm Calm - N/A   Scattered Clouds
5:53 PM 34.0 °F - 24.1 °F 67% 30.48 in 10.0 mi Calm Calm - N/A   Partly Cloudy
6:53 PM 30.0 °F 25.2 °F 23.0 °F 75% 30.47 in 10.0 mi SSE 4.6 mph - N/A   Partly Cloudy
7:53 PM 32.0 °F - 23.0 °F 69% 30.49 in 10.0 mi Calm Calm - N/A   Mostly Cloudy
8:53 PM 30.0 °F - 23.0 °F 75% 30.49 in 10.0 mi Calm Calm - N/A   Scattered Clouds
9:53 PM 30.9 °F 27.5 °F 24.1 °F 76% 30.50 in 10.0 mi SE 3.5 mph - N/A   Overcast
10:53 PM 30.0 °F 25.2 °F 23.0 °F 75% 30.51 in 10.0 mi SSE 4.6 mph - N/A   Overcast
11:53 PM 30.0 °F 25.2 °F 24.1 °F 79% 30.48 in 10.0 mi SE 4.6 mph - N/A   Overcast